EW1734 Weather Reports


Display with metric or nautical units.
time (UTC)temp
F
wind
direction
speed
MPH
gust
MPH
rain 1hr
in
rain 24hr
in
rain mn
in
humidity
%
barometer
mb
20260506073500 51 317 2.0 4.0 0.00 0.00 0.00 81 1018.0
20260506072958 51 23 2.0 3.0 0.00 0.00 0.00 81 1017.9
20260506072455 51 38 2.0 4.0 0.00 0.00 0.00 81 1017.8
20260506071953 51 43 2.0 4.0 0.00 0.00 0.00 81 1017.9
20260506071450 51 25 4.0 4.0 0.00 0.00 0.00 81 1017.7
20260506070947 51 20 2.0 4.0 0.00 0.00 0.00 81 1017.7
20260506070444 51 19 2.0 6.0 0.00 0.00 0.00 80 1017.7
20260506062422 51 53 1.0 2.0 0.00 0.00 0.00 79 1017.1
20260506061917 52 47 0.0 2.0 0.00 0.00 0.00 79 1017.1
20260506061414 52 44 1.0 2.0 0.00 0.00 0.00 78 1017.2
20260506060912 52 16 2.0 3.0 0.00 0.00 0.00 78 1017.0
20260506060410 52 21 2.0 3.0 0.00 0.00 0.00 77 1017.1
20260506051342 53 23 2.0 4.0 0.00 0.00 0.00 75 1016.8
20260506050839 53 52 0.0 4.0 0.00 0.00 0.00 74 1016.6
20260506050337 54 24 4.0 4.0 0.00 0.00 0.00 73 1016.5
20260506044827 54 75 0.0 4.0 0.00 0.00 0.00 74 1016.3
20260506044325 54 40 2.0 5.0 0.00 0.00 0.00 74 1016.2
20260506043822 54 54 2.0 4.0 0.00 0.00 0.00 74 1016.4
20260506043319 54 8 2.0 5.0 0.00 0.00 0.00 74 1016.3
20260506042817 54 74 0.0 5.0 0.00 0.00 0.00 74 1016.0
20260506042316 54 20 3.0 3.0 0.00 0.00 0.00 74 1016.0
20260506041815 55 33 2.0 2.0 0.00 0.00 0.00 74 1016.0
20260506041311 55 33 5.0 5.0 0.00 0.00 0.00 73 1015.9
20260506040808 55 23 2.0 2.0 0.00 0.00 0.00 75 1015.9
20260506040305 56 60 0.0 2.0 0.00 0.00 0.00 74 1015.9
20260506035802 56 46 2.0 2.0 0.00 0.00 0.00 76 1015.7
20260506035259 57 67 1.0 2.0 0.00 0.00 0.00 75 1015.6
20260506034756 57 70 1.0 2.0 0.00 0.00 0.00 74 1015.6
20260506034253 57 66 0.0 1.0 0.00 0.00 0.00 73 1015.5
20260506033750 58 32 0.0 2.0 0.00 0.00 0.00 72 1015.4
20260506033247 58 57 2.0 2.0 0.00 0.00 0.00 71 1015.5
20260506032744 59 126 0.0 1.0 0.00 0.00 0.00 70 1015.4
20260506032241 59 52 0.0 3.0 0.00 0.00 0.00 69 1015.2
20260506031737 59 29 0.0 2.0 0.00 0.00 0.00 68 1015.1
20260506031235 59 52 0.0 2.0 0.00 0.00 0.00 68 1015.0
20260506030733 60 69 0.0 2.0 0.00 0.00 0.00 67 1015.0
20260506030230 60 4 2.0 3.0 0.00 0.00 0.00 66 1014.9
20260506025727 60 29 1.0 1.0 0.00 0.00 0.00 66 1014.8
20260506025224 60 50 2.0 3.0 0.00 0.00 0.00 66 1014.8
20260506024720 60 96 1.0 2.0 0.00 0.00 0.00 66 1014.7
20260506024217 60 42 2.0 3.0 0.00 0.00 0.00 66 1014.4
20260506023713 61 31 0.0 2.0 0.00 0.00 0.00 66 1014.6
20260506023211 61 24 1.0 4.0 0.00 0.00 0.00 65 1014.5
20260506022707 61 180 0.0 1.0 0.00 0.00 0.00 67 1014.4
20260506022205 61 12 1.0 2.0 0.00 0.00 0.00 66 1014.4
20260506021703 61 57 2.0 2.0 0.00 0.00 0.00 66 1014.2
20260506021200 61 147 0.0 2.0 0.00 0.00 0.00 65 1014.4
20260506020656 62 326 0.0 3.0 0.00 0.00 0.00 63 1014.4
20260506020154 62 34 2.0 3.0 0.00 0.00 0.00 62 1014.3
20260506015652 62 358 2.0 4.0 0.00 0.00 0.00 62 1014.3
20260506015149 62 229 1.0 4.0 0.00 0.00 0.00 61 1014.2
20260506014646 62 58 1.0 3.0 0.00 0.00 0.00 62 1014.1
20260506014142 63 357 2.0 2.0 0.00 0.00 0.00 61 1014.2
20260506013640 63 225 1.0 3.0 0.00 0.00 0.00 61 1014.2
20260506013137 64 332 1.0 4.0 0.00 0.00 0.00 60 1014.2
20260506012633 64 7 2.0 3.0 0.00 0.00 0.00 59 1014.1
20260506012130 65 39 0.0 4.0 0.00 0.00 0.00 57 1014.1
20260506011627 66 31 0.0 4.0 0.00 0.00 0.00 57 1013.9
20260506011123 66 253 2.0 5.0 0.00 0.00 0.00 56 1013.9
20260506010622 66 302 1.0 3.0 0.00 0.00 0.00 54 1014.1
20260506010119 67 299 1.0 2.0 0.00 0.00 0.00 54 1013.9
20260506005616 67 27 1.0 3.0 0.00 0.00 0.00 53 1014.0
20260506005112 67 36 2.0 2.0 0.00 0.00 0.00 54 1013.9
20260506004609 67 8 2.0 4.0 0.00 0.00 0.00 54 1013.9
20260506004106 66 180 1.0 4.0 0.00 0.00 0.00 53 1014.0
20260506003602 66 198 1.0 5.0 0.00 0.00 0.00 52 1013.8
20260506003058 67 65 0.0 2.0 0.00 0.00 0.00 52 1013.8
20260506002554 66 129 0.0 3.0 0.00 0.00 0.00 52 1013.8
20260506002050 64 142 2.0 5.0 0.00 0.00 0.00 55 1013.8
20260506001547 65 180 2.0 7.0 0.00 0.00 0.00 53 1013.9
20260506001044 64 151 0.0 4.0 0.00 0.00 0.00 54 1013.7
20260506000542 63 93 1.0 2.0 0.00 0.00 0.00 54 1013.8
20260506000039 64 141 0.0 3.0 0.00 0.00 0.00 54 1013.8
20260505235537 64 110 0.0 3.0 0.00 0.00 0.00 53 1013.8
20260505235033 64 180 3.0 4.0 0.00 0.00 0.00 54 1013.7
20260505234530 63 111 1.0 5.0 0.00 0.00 0.00 55 1013.8
20260505234027 63 86 3.0 5.0 0.00 0.00 0.00 55 1013.6
20260505233525 63 96 1.0 4.0 0.00 0.00 0.00 56 1013.9
20260505233022 62 170 4.0 4.0 0.00 0.00 0.00 55 1013.9
20260505232520 63 121 3.0 6.0 0.00 0.00 0.00 55 1013.8
20260505232017 63 142 3.0 4.0 0.00 0.00 0.00 55 1013.8
20260505231514 63 150 2.0 4.0 0.00 0.00 0.00 55 1013.8
20260505231013 62 203 1.0 7.0 0.00 0.00 0.00 56 1013.6
20260505230509 63 109 4.0 5.0 0.00 0.00 0.00 55 1013.7
20260505230006 63 178 2.0 6.0 0.00 0.00 0.00 55 1013.7
20260505225503 63 191 2.0 4.0 0.00 0.00 0.00 55 1013.8
20260505224959 63 127 5.0 5.0 0.00 0.00 0.00 55 1013.9
20260505224456 62 112 1.0 5.0 0.00 0.00 0.00 56 1013.8
20260505223953 63 121 3.0 4.0 0.00 0.00 0.00 56 1013.8
20260505223450 63 124 3.0 5.0 0.00 0.00 0.00 57 1013.8
20260505222946 63 168 3.0 6.0 0.00 0.00 0.00 57 1014.0
20260505222442 63 121 2.0 5.0 0.00 0.00 0.00 56 1013.8
20260505221938 63 116 2.0 3.0 0.00 0.00 0.00 57 1013.9
20260505221436 62 173 2.0 4.0 0.00 0.00 0.00 58 1013.8
20260505220933 62 183 2.0 4.0 0.00 0.00 0.00 59 1014.1
20260505220430 62 169 2.0 5.0 0.00 0.00 0.00 60 1014.0
20260505215927 62 188 3.0 4.0 0.00 0.00 0.00 61 1014.1
20260505215425 62 197 4.0 5.0 0.00 0.00 0.00 61 1014.1
20260505214923 62 131 2.0 3.0 0.00 0.00 0.00 59 1014.3
20260505214421 62 154 2.0 9.0 0.00 0.00 0.00 59 1014.1
20260505213918 62 141 2.0 6.0 0.00 0.00 0.00 58 1014.1
20260505213415 62 103 2.0 7.0 0.00 0.00 0.00 58 1014.2
20260505212911 62 175 2.0 5.0 0.00 0.00 0.00 57 1014.2
20260505212408 62 186 6.0 8.0 0.00 0.00 0.00 57 1014.3
20260505211905 62 170 5.0 11.0 0.00 0.00 0.00 55 1014.0
20260505211402 64 154 4.0 5.0 0.00 0.00 0.00 55 1014.2
20260505210858 63 178 2.0 7.0 0.00 0.00 0.00 56 1014.1
20260505210356 64 190 8.0 13.0 0.00 0.00 0.00 55 1014.1
20260505205852 63 173 1.0 9.0 0.00 0.00 0.00 54 1014.1
20260505205351 64 154 2.0 6.0 0.00 0.00 0.00 53 1014.3
20260505204847 65 195 2.0 4.0 0.00 0.00 0.00 53 1014.2
20260505204345 65 193 2.0 4.0 0.00 0.00 0.00 53 1014.0
20260505203842 65 191 0.0 2.0 0.00 0.00 0.00 52 1013.9
20260505203338 66 126 0.0 3.0 0.00 0.00 0.00 51 1014.1
20260505202835 66 176 0.0 2.0 0.00 0.00 0.00 50 1014.2
20260505202331 66 293 0.0 3.0 0.00 0.00 0.00 51 1014.0
20260505201828 66 75 3.0 4.0 0.00 0.00 0.00 49 1014.2
20260505201325 67 269 0.0 2.0 0.00 0.00 0.00 49 1014.1
20260505200824 68 99 0.0 3.0 0.00 0.00 0.00 48 1014.1
20260505200320 68 290 0.0 2.0 0.00 0.00 0.00 50 1014.2
20260505195815 66 8 2.0 3.0 0.00 0.00 0.00 50 1014.1
20260505195313 68 274 2.0 2.0 0.00 0.00 0.00 49 1014.2
20260505194810 66 133 3.0 4.0 0.00 0.00 0.00 50 1014.3
20260505194307 67 68 0.0 3.0 0.00 0.00 0.00 49 1014.2
20260505193802 68 68 1.0 3.0 0.00 0.00 0.00 49 1014.4
20260505193301 69 263 2.0 3.0 0.00 0.00 0.00 49 1014.2
20260505192758 69 180 0.0 3.0 0.00 0.00 0.00 47 1014.6
20260505192256 65 241 0.0 5.0 0.00 0.00 0.00 52 1014.5
20260505191754 66 177 3.0 4.0 0.00 0.00 0.00 52 1014.5
20260505191252 66 86 0.0 2.0 0.00 0.00 0.00 52 1014.5
20260505190748 64 127 1.0 3.0 0.00 0.00 0.00 54 1014.6
20260505190243 63 83 2.0 3.0 0.00 0.00 0.00 57 1014.6
20260505185740 63 121 0.0 3.0 0.00 0.00 0.00 57 1014.5
20260505185236 63 132 6.0 6.0 0.00 0.00 0.00 56 1014.6
20260505184732 63 133 1.0 2.0 0.00 0.00 0.00 56 1014.6
20260505184230 64 92 2.0 3.0 0.00 0.00 0.00 55 1014.5
20260505183726 64 33 2.0 3.0 0.00 0.00 0.00 54 1014.5
20260505183224 62 96 2.0 4.0 0.00 0.00 0.00 57 1014.5
20260505182720 62 125 2.0 6.0 0.00 0.00 0.00 57 1014.6
20260505182217 63 67 1.0 6.0 0.00 0.00 0.00 56 1014.6
20260505181713 63 168 3.0 5.0 0.00 0.00 0.00 56 1014.6
20260505181211 63 83 3.0 6.0 0.00 0.00 0.00 55 1014.5
20260505180708 64 107 1.0 5.0 0.00 0.00 0.00 55 1014.4
20260505180204 63 85 2.0 6.0 0.00 0.00 0.00 55 1014.4
20260505175700 63 117 1.0 8.0 0.00 0.00 0.00 57 1014.7
20260505175157 63 169 2.0 6.0 0.00 0.00 0.00 56 1014.6
20260505174653 62 44 0.0 7.0 0.00 0.00 0.00 57 1014.6
20260505174149 62 123 2.0 2.0 0.00 0.00 0.00 56 1014.5
20260505173646 62 143 6.0 7.0 0.00 0.00 0.00 57 1014.6
20260505173144 62 98 0.0 2.0 0.00 0.00 0.00 57 1014.4
20260505172641 60 128 3.0 4.0 0.00 0.00 0.00 58 1014.3
20260505172138 61 151 2.0 4.0 0.00 0.00 0.00 58 1014.4
20260505171637 62 134 2.0 3.0 0.00 0.00 0.00 60 1014.3
20260505171135 61 76 0.0 1.0 0.00 0.00 0.00 60 1014.4
20260505170632 61 34 0.0 2.0 0.00 0.00 0.00 61 1014.3
20260505170128 60 69 3.0 3.0 0.00 0.00 0.00 62 1014.3
20260505165623 59 73 1.0 3.0 0.00 0.00 0.00 65 1014.3
20260505165120 58 16 3.0 4.0 0.00 0.00 0.00 66 1014.3
20260505164615 58 18 4.0 4.0 0.00 0.00 0.00 67 1014.4
20260505164113 58 8 2.0 3.0 0.00 0.00 0.00 68 1014.2
20260505163611 58 89 2.0 5.0 0.00 0.00 0.00 68 1014.2
20260505163108 57 194 0.0 2.0 0.00 0.00 0.00 69 1014.2
20260505162606 57 58 2.0 4.0 0.00 0.00 0.00 69 1014.3
20260505162103 58 46 0.0 2.0 0.00 0.00 0.00 69 1014.2
20260505161600 57 132 2.0 4.0 0.00 0.00 0.00 70 1014.2
20260505161057 58 146 0.0 2.0 0.00 0.00 0.00 68 1014.1
20260505160555 57 102 0.0 2.0 0.00 0.00 0.00 70 1014.0
20260505153032 56 87 1.0 3.0 0.00 0.00 0.00 71 1014.0
20260505152529 56 114 1.0 4.0 0.00 0.00 0.00 72 1013.9
20260505152024 56 118 0.0 3.0 0.00 0.00 0.00 73 1013.8
20260505151519 56 122 2.0 5.0 0.00 0.00 0.00 73 1013.9
20260505151017 57 50 1.0 2.0 0.00 0.00 0.00 72 1013.9
20260505150513 56 103 0.0 2.0 0.00 0.00 0.00 73 1013.9
20260505140438 51 58 0.0 2.0 0.00 0.00 0.00 81 1013.7
20260505124852 48 62 1.0 4.0 0.00 0.00 0.00 84 1013.3
20260505124349 48 76 1.0 3.0 0.00 0.00 0.00 84 1013.4
20260505123845 48 11 2.0 4.0 0.00 0.00 0.00 84 1013.3
20260505123342 48 67 2.0 3.0 0.00 0.00 0.00 83 1013.2
20260505122837 48 49 0.0 3.0 0.00 0.00 0.00 83 1013.1
20260505122335 48 306 0.0 3.0 0.00 0.00 0.00 83 1013.3
20260505121832 48 28 4.0 4.0 0.00 0.00 0.00 83 1013.3
20260505121329 48 28 3.0 4.0 0.00 0.00 0.00 83 1013.4
20260505120825 48 42 3.0 3.0 0.00 0.00 0.00 83 1013.4
20260505120321 48 40 4.0 5.0 0.00 0.00 0.00 82 1013.4
20260505115820 48 78 1.0 3.0 0.00 0.00 0.00 82 1013.2
20260505115317 48 47 1.0 2.0 0.00 0.00 0.00 82 1013.1
20260505114815 48 52 0.0 2.0 0.00 0.00 0.00 81 1013.5
20260505114311 49 73 2.0 3.0 0.00 0.00 0.00 80 1013.5
20260505113808 49 62 2.0 4.0 0.00 0.00 0.00 80 1013.4
20260505113304 49 57 1.0 3.0 0.00 0.00 0.00 80 1013.4
20260505112800 49 27 2.0 4.0 0.00 0.00 0.00 80 1013.3
20260505112258 49 28 1.0 4.0 0.00 0.00 0.00 80 1013.5
20260505111758 49 39 1.0 2.0 0.00 0.00 0.00 80 1013.5
20260505111254 49 48 0.0 2.0 0.00 0.00 0.00 81 1013.2
20260505110750 49 38 0.0 3.0 0.00 0.00 0.00 80 1013.4
20260505110248 50 89 0.0 2.0 0.00 0.00 0.00 80 1013.5
20260505101722 51 82 1.0 2.0 0.00 0.00 0.00 80 1013.5
20260505101218 52 81 2.0 2.0 0.00 0.00 0.00 79 1013.6
20260505100714 52 80 0.0 1.0 0.00 0.00 0.00 79 1013.5
20260505100211 52 89 0.0 1.0 0.00 0.00 0.00 78 1013.4
20260505095707 53 89 0.0 1.0 0.00 0.00 0.00 77 1013.6
20260505095205 53 54 0.0 2.0 0.00 0.00 0.00 77 1013.5
20260505094700 53 96 1.0 2.0 0.00 0.00 0.00 77 1013.6
20260505094157 53 64 0.0 2.0 0.00 0.00 0.00 77 1013.6
20260505093653 53 139 0.0 1.0 0.00 0.00 0.00 77 1013.7
20260505093151 53 89 0.0 2.0 0.00 0.00 0.00 76 1013.6
20260505092647 53 109 1.0 1.0 0.00 0.00 0.00 76 1013.9
20260505092146 53 102 1.0 2.0 0.00 0.00 0.00 76 1013.7
20260505091643 54 107 0.0 2.0 0.00 0.00 0.00 76 1013.9
20260505091141 54 110 0.0 2.0 0.00 0.00 0.00 75 1014.0
20260505090638 54 167 1.0 1.0 0.00 0.00 0.00 74 1014.1
20260505090136 54 63 0.0 2.0 0.00 0.00 0.00 74 1014.2
20260505085633 54 49 0.0 2.0 0.00 0.00 0.00 73 1014.1
20260505085132 54 67 0.0 3.0 0.00 0.00 0.00 73 1014.3
20260505084629 54 59 1.0 3.0 0.00 0.00 0.00 73 1014.2
20260505084127 54 49 2.0 3.0 0.00 0.00 0.00 75 1014.4
20260505083625 54 30 1.0 2.0 0.00 0.00 0.00 75 1014.4
20260505083121 54 86 2.0 3.0 0.00 0.00 0.00 75 1014.5
20260505082617 54 75 2.0 2.0 0.00 0.00 0.00 75 1014.3
20260505082114 54 309 2.0 2.0 0.00 0.00 0.00 75 1014.5
20260505081610 54 304 0.0 4.0 0.00 0.00 0.00 75 1014.6
20260505081108 55 43 0.0 2.0 0.00 0.00 0.00 76 1014.8
20260505080603 55 309 0.0 3.0 0.00 0.00 0.00 74 1014.5
20260505080100 55 6 3.0 6.0 0.00 0.00 0.00 74 1014.7
20260505075556 55 30 2.0 2.0 0.00 0.00 0.00 74 1014.4
20260505075053 55 22 2.0 2.0 0.00 0.00 0.00 74 1014.8
20260505074550 55 29 0.0 2.0 0.00 0.00 0.00 74 1014.8